DW2770 Cefalu IT current weather conditions

sailwx.info

Wind from 225 at 6 knots gusting 7

Air temperature 18.9° C
Dewpoint 11.4° C

Last reported at 2014-Nov-27 22:50 UTC.
Time now 2014-Nov-27 23:10 UTC

Location: N 38°02' E 014°02'.
View on Google Maps.

See reports from other nearby stations

  
Tides and Currents Weather Stations Pressure Air Temp Water Temp Dewpoint Dewpoint Depression Visibility Wind Speed Wind Dir Waves Ship Positions
date/time (UTC)wind fromknots sea level pressurealtimeterstation pressurevisibilityair tempwater tempwave heightnotes
2014-Nov-27 22:50 225 6 gusting 7 18.9
2014-Nov-27 22:29 225 1 gusting 5 18.3
2014-Nov-27 22:19 090 17.8
2014-Nov-27 21:59 225 0 gusting 1 16.7
2014-Nov-27 21:49 180 0 gusting 1 16.7
2014-Nov-27 21:29 202 2 gusting 5 16.7
2014-Nov-27 21:19 158 0 gusting 4 16.7
2014-Nov-27 20:59 180 1 gusting 1 16.7
2014-Nov-27 20:49 202 0 gusting 5 16.7
2014-Nov-27 20:30 202 2 gusting 2 16.7
2014-Nov-27 20:20 202 1 gusting 1 16.7
2014-Nov-27 20:00 202 0 gusting 2 16.7
2014-Nov-27 19:50 248 0 gusting 2 16.7
2014-Nov-27 19:30 180 16.1
2014-Nov-27 19:20 180 0 gusting 2 15.6
2014-Nov-27 19:00 180 1 gusting 1 16.1
2014-Nov-27 18:50 202 15.6
2014-Nov-27 18:30 112 15.6
2014-Nov-27 18:20 135 15.6
2014-Nov-27 18:00 068 15.6
2014-Nov-27 17:50 068 16.1
2014-Nov-27 17:30 068 0 gusting 4 16.7
2014-Nov-27 17:20 112 1 gusting 2 16.7
2014-Nov-27 17:00 068 0 gusting 4 16.7
2014-Nov-27 16:50 090 3 gusting 4 16.7
2014-Nov-27 16:30 090 1 gusting 2 16.7
2014-Nov-27 16:20 135 2 gusting 5 16.7
2014-Nov-27 16:00 090 3 gusting 5 16.7
2014-Nov-27 15:50 090 1 gusting 2 17.2
2014-Nov-27 15:30 090 1 gusting 2 17.2
2014-Nov-27 15:20 068 1 gusting 4 17.2
2014-Nov-27 15:00 068 1 gusting 5 17.2
2014-Nov-27 14:50 045 1 gusting 6 17.2
2014-Nov-27 14:30 068 1 gusting 4 17.8
2014-Nov-27 14:20 090 1 gusting 6 17.8
2014-Nov-27 14:00 068 1 gusting 4 18.3
2014-Nov-27 13:50 068 1 gusting 2 18.3
2014-Nov-27 13:30 068 0 gusting 2 18.3
2014-Nov-27 13:20 045 1 gusting 1 18.3
2014-Nov-27 13:00 090 1 gusting 1 18.9
2014-Nov-27 12:50 068 1 gusting 2 18.9
2014-Nov-27 12:40 075 18.9
2014-Nov-27 12:30 090 1 gusting 1 18.9
2014-Nov-27 12:10 078 4 gusting 6 18.9
2014-Nov-27 12:00 068 1 gusting 5 20.0
2014-Nov-27 11:49 248 1 gusting 2 19.4
2014-Nov-27 11:29 245 1 gusting 2 20.0
2014-Nov-27 11:19 248 1 gusting 2 19.4
2014-Nov-27 10:59 225 4 gusting 5 19.4
2014-Nov-27 10:49 315 2 gusting 2 19.4
2014-Nov-27 10:29 278 1 gusting 1 18.3
2014-Nov-27 10:19 248 2 gusting 4 18.3
2014-Nov-27 09:59 282 1 gusting 4 18.3
2014-Nov-27 09:49 248 0 gusting 1 18.3
2014-Nov-27 09:29 237 2 gusting 2 18.3
2014-Nov-27 09:19 248 2 gusting 2 18.3
2014-Nov-27 08:59 053 17.8
2014-Nov-27 08:49 068 2 gusting 2 17.8
2014-Nov-27 08:29 078 0 gusting 0 17.8
2014-Nov-27 08:19 090 17.2
2014-Nov-27 07:59 090 16.7
2014-Nov-27 07:49 202 16.1
2014-Nov-27 07:29 202 16.1
2014-Nov-27 07:19 180 0 gusting 1 15.6
2014-Nov-27 06:59 180 15.0
2014-Nov-27 06:49 180 15.0
2014-Nov-27 06:29 180 15.6
2014-Nov-27 06:19 202 1 gusting 1 15.6
2014-Nov-27 05:59 180 1 gusting 2 15.6
2014-Nov-27 05:49 180 0 gusting 4 15.6
2014-Nov-27 05:29 180 2 gusting 2 15.0
2014-Nov-27 05:19 202 4 gusting 4 15.0
2014-Nov-27 04:59 202 15.6
2014-Nov-27 04:49 202 0 gusting 1 15.6
2014-Nov-27 04:29 194 1 gusting 2 15.6
2014-Nov-27 04:19 180 1 gusting 2 15.6
2014-Nov-27 03:59 202 2 gusting 2 15.0
2014-Nov-27 03:49 180 0 gusting 1 15.0
2014-Nov-27 03:29 202 1 gusting 4 15.6
2014-Nov-27 03:19 202 1 gusting 5 15.6
2014-Nov-27 02:59 194 1 gusting 6 15.6
2014-Nov-27 02:49 180 4 gusting 6 16.1
2014-Nov-27 02:29 180 1 gusting 5 16.1
2014-Nov-27 02:19 202 1 gusting 5 16.1
2014-Nov-27 01:59 195 2 gusting 2 16.1
2014-Nov-27 01:49 202 2 gusting 4 15.0
2014-Nov-27 01:29 185 1 gusting 2 15.0
2014-Nov-27 01:19 202 0 gusting 4 14.4
2014-Nov-27 00:59 185 14.4
2014-Nov-27 00:49 180 14.4
2014-Nov-27 00:29 180 15.0
2014-Nov-27 00:19 158 1 gusting 1 15.0
2014-Nov-26 23:59 180 15.6
2014-Nov-26 23:49 180 2 gusting 2 15.6
2014-Nov-26 23:29 180 15.6
2014-Nov-26 23:19 180 1 gusting 2 16.1
2014-Nov-26 22:59 202 4 gusting 4 15.6
2014-Nov-26 22:49 189 4 gusting 4 15.6
2014-Nov-26 22:29 180 1 gusting 2 16.1
2014-Nov-26 22:19 181 2 gusting 5 16.1
2014-Nov-26 21:59 187 2 gusting 2 16.1
2014-Nov-26 21:49 202 2 gusting 2 16.1
2014-Nov-26 21:29 180 1 gusting 1 16.1
2014-Nov-26 21:19 201 0 gusting 1 16.1
2014-Nov-26 20:59 180 2 gusting 2 16.1
2014-Nov-26 20:49 202 16.1
2014-Nov-26 20:29 180 16.1
2014-Nov-26 20:19 180 16.1
2014-Nov-26 19:59 180 16.1
2014-Nov-26 19:49 112 16.1
2014-Nov-26 19:29 182 16.7
2014-Nov-26 19:19 202 1 gusting 2 16.7
2014-Nov-26 18:59 180 1 gusting 2 17.2
2014-Nov-26 18:49 202 0 gusting 4 17.2
2014-Nov-26 18:29 180 0 gusting 2 17.2
2014-Nov-26 18:19 198 1 gusting 1 17.8
2014-Nov-26 17:59 188 1 gusting 1 17.8
2014-Nov-26 17:49 180 1 gusting 1 17.2
2014-Nov-26 17:29 180 17.8
2014-Nov-26 17:19 180 17.8
2014-Nov-26 16:59 176 17.8
2014-Nov-26 16:50 045 0 gusting 1 17.8
2014-Nov-26 16:30 194 1 gusting 1 17.8
2014-Nov-26 16:20 180 1 gusting 1 17.8
2014-Nov-26 16:00 112 17.8
2014-Nov-26 15:50 090 17.8
2014-Nov-26 15:30 090 17.8
2014-Nov-26 15:20 068 0 gusting 1 18.3
2014-Nov-26 15:00 115 0 gusting 1 18.3
2014-Nov-26 14:50 068 2 gusting 2 18.3
2014-Nov-26 14:30 060 18.3
2014-Nov-26 14:20 068 0 gusting 2 18.3
2014-Nov-26 14:00 068 2 gusting 6 18.3
2014-Nov-26 13:50 068 1 gusting 4 18.3
2014-Nov-26 13:40 068 1 gusting 1 18.3
2014-Nov-26 13:30 052 1 gusting 4 18.3
2014-Nov-26 13:20 068 2 gusting 2 18.9
2014-Nov-26 13:00 068 2 gusting 4 18.3
2014-Nov-26 12:50 068 2 gusting 4 18.3
2014-Nov-26 12:30 068 0 gusting 1 18.3
2014-Nov-26 12:20 069 18.9
2014-Nov-26 12:00 088 18.9
2014-Nov-26 11:50 068 0 gusting 2 19.4
2014-Nov-26 11:30 090 2 gusting 2 18.9
2014-Nov-26 11:10 068 2 gusting 2 18.9
2014-Nov-26 11:00 057 0 gusting 2 18.9
2014-Nov-26 10:48 068 1 gusting 2 18.9
2014-Nov-26 10:29 045 1 gusting 2 18.9
2014-Nov-26 10:19 090 2 gusting 2 18.3
2014-Nov-26 09:59 090 2 gusting 2 18.3
2014-Nov-26 09:49 068 1 gusting 2 18.3
2014-Nov-26 09:29 068 1 gusting 1 18.3
2014-Nov-26 09:19 171 18.3
2014-Nov-26 08:59 225 18.3
2014-Nov-26 08:49 225 18.3
2014-Nov-26 08:29 248 1 gusting 1 17.8
2014-Nov-26 08:19 256 17.8
2014-Nov-26 07:59 225 1 gusting 1 17.8
2014-Nov-26 07:49 248 1 gusting 1 17.8
2014-Nov-26 07:29 180 0 gusting 1 17.2
2014-Nov-26 07:19 180 17.2
2014-Nov-26 06:59 180 16.7
2014-Nov-26 06:49 198 16.7
2014-Nov-26 06:29 180 0 gusting 1 16.1
2014-Nov-26 06:19 190 16.1
2014-Nov-26 05:59 180 16.1
2014-Nov-26 05:49 180 1 gusting 1 15.6
2014-Nov-26 05:29 180 0 gusting 0 15.6
2014-Nov-26 05:19 180 0 gusting 1 15.6
2014-Nov-26 04:59 180 1 gusting 2 15.6
2014-Nov-26 04:49 129 15.6
2014-Nov-26 04:39 225 15.6
2014-Nov-26 04:29 180 16.1
2014-Nov-26 04:19 180 15.6
2014-Nov-26 04:09 180 16.1
2014-Nov-26 03:59 180 16.1
2014-Nov-26 03:49 158 16.1
2014-Nov-26 03:29 180 16.1
2014-Nov-26 03:19 188 1 gusting 2 16.1
2014-Nov-26 02:59 180 16.7
2014-Nov-26 02:49 199 16.7
2014-Nov-26 02:30 180 16.7
2014-Nov-26 02:19 180 1 gusting 1 16.7
2014-Nov-26 01:59 180 16.1
2014-Nov-26 01:49 180 16.1
2014-Nov-26 01:29 180 15.6
2014-Nov-26 01:19 202 16.1
2014-Nov-26 00:59 180 1 gusting 2 16.7
2014-Nov-26 00:49 202 1 gusting 1 16.7
2014-Nov-26 00:29 202 16.7
2014-Nov-26 00:19 180 16.1
2014-Nov-25 23:59 202 0 gusting 1 16.1
2014-Nov-25 23:49 180 16.1
2014-Nov-25 23:39 174 16.1
2014-Nov-25 23:29 202 16.1
2014-Nov-25 23:19 183 16.1
2014-Nov-25 23:09 180 16.7